GFSMA_sfc_wetblb_096.txt.gz
Wetbulb
75.26 75.30 75.55 75.02 74.83 75.05 75.54 76.77 76.62 76.46 76.92 75.88 75.85 75.03 74.27 73.69 73.38 74.03 74.71 74.55 74.30 74.36 73.84 73.88 73.62 73.66 73.52 73.45 73.58 73.51 73.49 73.83 73.56 73.38 73.76 73.97 73.73 73.70 73.62 73.68 73.62 73.39 72.96
75.47 75.35 75.32 75.12 75.30 75.97 76.18 77.41 77.35 76.72 76.25 75.97 75.16 75.42 75.32 74.73 74.95 75.65 75.06 75.69 74.61 74.53 74.78 74.32 73.75 73.65 73.87 74.30 74.30 74.29 74.20 73.94 73.59 73.57 73.68 73.88 73.70 73.93 74.16 74.36 73.83 73.58 74.06
76.73 76.33 75.26 75.43 75.50 76.27 77.03 77.22 77.54 77.65 76.08 75.07 74.91 75.17 75.50 75.68 75.40 76.10 77.17 75.89 75.73 74.45 74.87 74.81 74.90 74.44 74.12 74.16 74.51 74.51 74.44 74.40 74.24 74.36 74.27 74.48 74.60 74.81 75.13 74.67 74.55 73.75 73.78
77.46 76.91 76.00 75.48 76.22 75.94 76.89 76.59 76.72 76.06 74.41 73.31 73.88 74.81 75.33 76.44 76.14 76.85 77.35 76.49 76.96 76.43 75.65 75.02 75.34 75.59 75.23 74.78 74.82 75.36 76.00 76.87 76.94 76.34 75.96 75.46 75.46 75.51 75.29 75.01 74.61 74.11 73.73
77.56 76.67 76.13 76.84 76.72 75.85 75.84 76.02 76.13 76.47 73.79 74.07 73.30 74.75 76.23 76.53 76.55 75.89 76.74 77.11 77.44 76.93 76.66 76.33 74.74 74.37 74.65 75.40 75.71 76.02 76.23 77.13 77.14 77.53 77.45 77.15 76.92 76.21 75.96 75.66 75.09 74.47 74.19
77.95 76.43 76.31 76.76 76.05 75.45 75.38 76.62 76.77 75.57 74.96 74.28 72.81 73.39 75.73 76.53 77.13 76.99 76.71 76.24 77.31 76.75 77.13 77.60 77.49 77.49 75.49 75.56 75.57 75.74 76.07 76.70 76.88 76.84 77.10 77.22 77.14 76.99 76.59 76.09 75.50 75.04 74.34
77.85 77.93 76.06 76.77 76.19 75.24 76.36 76.71 75.47 74.89 73.41 75.79 72.85 71.92 73.12 74.13 74.91 75.80 76.67 76.72 76.01 76.94 76.93 77.48 77.49 77.25 77.46 76.16 76.25 76.07 76.17 76.34 77.19 77.11 77.02 76.72 76.61 76.63 76.40 76.20 75.84 75.56 74.78
77.91 77.28 77.62 76.13 76.55 75.49 76.99 76.71 76.81 73.32 74.31 75.19 71.59 71.58 69.60 70.07 72.55 73.93 75.41 75.43 75.31 76.46 76.89 77.18 78.02 78.35 77.96 77.46 78.06 76.80 76.38 76.01 76.21 76.66 76.99 76.69 76.67 76.33 76.13 75.89 75.58 75.29 75.11
77.31 77.19 77.06 77.19 77.52 77.53 74.75 76.75 76.55 76.16 71.94 74.82 75.32 72.51 69.07 67.48 71.02 72.65 73.71 74.79 76.59 76.11 76.48 77.53 77.81 78.21 78.24 78.38 78.35 78.79 77.45 76.00 76.17 75.72 76.53 76.42 76.24 76.06 76.21 76.20 75.68 75.14 75.06
77.44 77.07 77.06 77.35 77.38 76.96 76.91 76.76 76.99 76.72 75.99 72.28 74.76 74.80 74.83 74.27 69.76 68.84 72.53 74.07 75.49 75.86 77.05 77.24 76.65 77.83 78.73 78.23 79.14 77.93 75.90 74.76 75.06 75.21 75.51 76.02 76.14 76.06 76.29 76.52 76.53 75.75 75.24
77.50 77.23 77.34 77.59 78.27 77.01 77.47 77.38 77.51 77.74 75.73 74.59 73.61 74.53 75.09 75.49 75.30 71.58 69.16 71.52 74.01 75.07 75.65 76.32 77.35 77.53 78.54 78.96 78.69 77.66 75.67 74.94 74.16 74.26 74.49 74.21 74.56 75.06 75.59 75.69 76.04 76.34 76.84
76.42 77.61 78.36 78.37 79.09 77.86 77.93 77.73 78.16 77.94 77.91 76.98 75.62 75.20 73.91 73.32 72.45 72.81 72.06 72.73 72.70 73.57 75.36 76.39 77.13 77.64 78.30 78.81 78.93 76.78 75.75 74.10 73.43 72.83 72.10 72.55 73.40 74.06 74.76 75.11 75.06 75.06 75.04
75.80 78.21 78.97 78.70 77.60 78.62 78.71 78.36 78.35 78.09 77.76 77.13 77.30 75.64 76.17 76.36 76.07 74.93 73.59 72.41 72.81 74.36 74.86 76.59 76.85 77.54 77.72 78.79 79.04 76.45 75.62 72.95 72.23 70.46 69.61 70.46 71.39 71.93 72.37 72.14 71.94 72.27 72.88
76.18 79.11 77.41 78.31 77.99 77.73 78.30 78.68 77.42 76.44 77.83 77.08 77.04 77.56 75.76 76.60 76.92 76.02 74.20 72.80 70.93 72.61 74.95 74.48 77.11 77.64 77.78 78.38 77.83 76.20 78.00 72.52 71.38 69.18 68.17 68.79 69.07 69.13 68.77 68.33 67.94 67.78 67.58
76.55 78.56 78.23 76.86 77.15 77.61 78.22 78.62 77.03 77.48 77.89 77.67 77.54 78.04 76.55 76.09 76.01 76.57 75.96 75.05 72.58 69.35 70.33 75.66 74.51 77.99 78.27 78.14 77.88 79.12 79.37 73.99 71.76 68.70 67.50 66.88 66.89 66.98 66.78 66.58 66.54 66.18 65.61
77.82 77.83 78.39 78.11 77.45 77.38 77.91 78.09 77.57 78.13 77.79 76.83 76.32 77.44 77.83 75.70 76.40 76.24 75.71 75.63 75.19 72.94 70.27 73.39 74.81 77.58 79.29 78.80 78.64 79.72 78.99 74.64 70.92 67.83 66.15 65.16 65.34 65.43 65.48 65.65 65.61 65.32 64.94
78.33 78.27 78.74 78.59 78.11 77.79 78.25 78.63 77.80 76.96 77.46 77.05 77.31 77.20 77.11 78.09 75.93 75.35 75.81 75.74 75.02 74.67 72.44 73.22 75.72 77.97 78.88 78.84 79.51 80.19 78.85 78.35 75.93 67.03 65.69 64.43 64.04 64.08 64.34 64.52 64.12 63.42 63.54
78.40 78.19 78.18 78.88 78.56 78.43 78.76 77.91 76.20 76.44 76.81 76.52 77.05 77.17 76.83 76.10 77.83 78.07 75.87 77.06 76.59 76.71 74.40 74.59 77.70 76.14 78.31 79.15 79.35 79.36 77.71 76.77 77.98 67.30 64.99 63.88 63.33 63.10 62.97 63.04 62.64 61.37 61.91
77.05 77.35 77.69 77.84 78.18 78.51 78.46 78.82 77.68 77.00 77.00 77.06 77.40 77.27 76.71 76.80 77.01 76.34 77.03 76.20 75.95 76.13 76.49 74.57 74.48 76.06 76.67 77.16 78.16 79.23 78.30 78.01 75.71 66.93 64.45 63.93 63.20 62.84 62.63 62.23 61.93 60.34 59.42
76.54 76.53 77.11 77.45 77.94 78.30 78.27 78.17 78.24 78.06 77.89 77.09 78.02 78.02 77.32 76.07 76.85 77.34 77.19 77.77 77.61 76.86 77.64 75.28 74.85 74.60 74.63 77.86 76.68 74.61 73.24 74.37 74.62 76.48 73.86 70.99 67.62 63.93 63.36 62.73 63.08 62.19 59.50
76.75 76.79 76.33 76.27 76.94 76.88 76.96 78.18 78.05 77.86 78.28 78.10 78.21 78.40 77.87 75.57 72.42 73.16 75.31 77.88 77.97 75.83 74.74 73.83 73.09 72.80 72.60 73.34 74.72 74.12 72.98 73.67 76.62 77.35 76.70 77.39 79.14 76.59 72.58 65.47 66.50 63.36 60.84
76.78 76.78 76.44 75.85 75.47 74.64 68.77 68.08 74.34 77.57 78.02 77.94 77.40 78.38 78.53 74.39 73.88 69.43 68.95 69.01 72.30 76.23 75.62 73.12 71.36 71.94 76.85 75.35 74.84 73.42 73.69 72.99 71.92 76.16 76.46 75.54 79.96 78.21 76.05 72.89 61.40 61.19 60.43
76.33 76.21 76.45 76.38 76.00 75.94 65.92 65.69 68.88 76.39 76.85 77.57 77.96 77.85 77.53 76.71 75.37 77.99 70.59 67.62 67.82 66.79 68.23 75.71 75.13 75.19 75.81 76.25 77.02 76.56 77.46 75.73 74.69 75.79 77.10 74.87 79.59 77.44 76.07 68.00 61.00 60.32 59.75
75.37 75.59 75.74 76.37 76.16 76.41 65.62 63.52 66.43 75.69 77.13 78.23 78.05 77.83 78.33 78.27 77.65 77.28 77.66 77.35 77.10 77.09 76.51 75.50 76.09 76.41 77.64 77.80 78.06 78.64 78.07 77.62 77.45 76.77 79.28 74.29 77.53 77.20 76.32 73.89 60.82 59.44 58.72
75.06 75.32 75.55 75.95 76.20 76.44 63.38 62.83 66.45 73.97 73.47 76.88 77.86 78.90 79.12 78.95 72.59 66.78 77.00 76.57 76.66 76.19 71.78 66.97 67.57 67.09 66.37 66.10 69.91 75.93 74.24 72.98 71.35 71.92 76.24 75.97 75.95 77.18 76.34 75.90 69.25 59.61 57.49
73.29 74.07 74.25 75.58 71.74 76.15 65.88 60.71 64.99 74.03 74.33 72.14 75.76 78.54 68.13 74.65 67.25 64.06 76.68 76.73 75.58 75.69 75.23 75.76 76.49 73.43 69.77 74.15 65.51 74.37 75.45 73.02 71.95 70.95 76.05 75.43 75.35 77.24 73.71 75.62 72.74 69.85 67.13

GFSMA_sfc_wetblb_102.txt.gz
Wetbulb
77.11 75.71 75.68 74.90 73.61 76.65 74.43 75.01 73.93 76.04 75.18 73.95 74.61 73.40 72.37 73.45 72.34 71.98 72.73 76.18 75.81 74.82 74.08 73.69 73.39 73.31 73.66 73.98 73.85 73.95 74.29 74.31 74.18 74.09 73.85 73.97 74.07 73.96 73.97 74.09 74.33 73.61 72.91
74.30 75.94 76.98 75.50 76.27 74.61 75.13 74.12 72.86 74.02 72.21 74.56 74.54 74.51 74.70 74.10 75.45 73.88 72.35 74.24 76.26 75.75 75.12 74.27 74.05 73.77 73.58 73.66 74.42 74.82 74.86 74.85 74.96 74.96 75.24 75.38 75.11 74.73 74.68 74.73 74.72 74.14 73.03
78.13 72.51 75.94 74.38 76.35 77.46 76.80 77.56 75.52 77.65 74.32 74.26 74.20 75.16 74.38 75.39 74.92 74.95 74.02 73.34 74.36 76.41 76.46 75.64 75.27 74.97 74.62 74.59 74.89 75.11 75.83 76.50 76.59 76.74 76.80 76.68 76.40 76.13 75.85 75.52 75.16 74.45 74.16
79.19 78.78 77.30 74.54 77.53 77.52 72.78 76.22 75.26 74.00 75.32 73.72 74.08 72.20 74.20 74.22 75.08 75.35 75.19 75.48 74.20 74.11 75.94 76.67 76.77 76.52 75.77 75.86 75.89 76.38 76.91 77.19 77.32 77.43 77.46 77.71 77.71 77.31 76.95 76.35 75.80 75.25 74.74
78.71 77.66 77.27 77.84 78.25 75.78 75.53 72.59 71.34 74.79 74.84 71.59 72.71 73.41 73.60 74.42 73.64 74.26 74.58 75.08 74.33 75.50 75.10 76.20 76.79 76.88 76.73 76.92 77.06 77.59 77.69 77.51 77.58 77.43 77.48 77.26 77.21 77.18 76.70 76.32 76.50 76.07 75.12
77.55 75.02 77.48 77.91 78.61 76.94 73.84 72.09 75.27 74.74 75.24 70.01 71.85 72.40 74.38 74.64 74.39 74.48 74.00 74.91 74.27 74.69 75.79 76.08 75.73 75.83 76.99 77.79 78.23 78.29 78.27 77.94 77.58 77.64 77.41 77.41 77.17 77.07 76.92 76.81 76.37 76.14 75.64
78.05 76.05 75.70 77.72 78.75 72.53 75.13 76.59 75.87 75.73 75.29 75.44 75.05 73.72 73.21 73.08 73.34 74.05 74.62 74.07 74.30 75.29 74.87 76.24 76.49 76.42 75.49 77.09 77.74 77.94 78.41 78.69 78.65 78.08 77.43 76.93 76.62 76.33 76.38 76.37 76.24 76.27 74.88
78.77 77.01 77.31 77.10 77.17 76.17 77.79 77.30 78.08 74.20 74.52 74.82 73.27 73.47 69.53 70.71 72.25 72.30 73.22 73.88 73.09 74.38 75.08 76.11 76.90 76.83 77.11 77.53 76.91 77.67 77.79 77.32 77.42 77.64 77.56 76.98 76.18 76.02 75.99 75.76 75.77 75.83 75.79
78.14 78.61 78.11 78.52 74.43 77.26 76.46 78.18 77.77 76.77 73.75 73.58 75.75 74.02 69.17 67.48 69.73 71.92 72.94 72.94 74.07 75.01 75.74 76.02 76.72 77.60 77.44 77.98 78.00 77.54 77.41 76.01 76.79 76.75 76.98 76.60 76.08 75.90 76.00 75.91 75.75 75.59 75.46
78.57 78.33 78.68 79.14 78.59 77.43 77.72 78.22 75.48 76.46 77.71 74.01 73.88 73.56 73.88 74.60 70.18 69.12 72.42 72.74 74.79 74.74 75.14 75.48 77.00 77.54 77.85 78.41 78.24 77.47 76.55 75.41 75.24 75.62 75.75 76.02 76.27 76.44 76.57 76.42 76.01 75.45 75.33
76.81 77.67 79.11 79.08 78.36 72.92 74.97 78.77 78.44 78.49 76.90 74.21 74.35 74.08 74.63 74.61 75.01 72.62 69.06 71.66 73.93 75.20 76.30 75.35 76.51 77.19 78.17 78.31 79.27 76.55 76.02 74.79 74.15 74.19 73.94 74.66 74.89 75.07 74.92 74.35 73.77 73.10 73.95
77.77 77.91 78.15 79.34 78.50 74.37 77.29 78.75 79.03 79.06 78.20 76.75 76.64 76.17 73.36 73.34 70.93 72.32 70.74 71.78 70.97 72.97 74.36 75.99 75.58 76.18 77.58 77.62 77.72 77.32 75.90 74.44 73.57 72.71 72.11 72.56 72.70 72.79 72.70 72.04 71.47 71.21 70.99
76.01 77.19 78.32 79.12 79.01 79.93 78.44 79.13 79.89 79.19 78.61 77.89 79.06 75.95 75.88 71.09 74.51 74.60 71.99 70.64 71.38 73.36 74.02 75.74 75.17 76.74 76.41 77.84 77.74 76.41 76.57 74.19 72.45 70.81 70.25 70.36 70.14 70.08 69.90 70.00 70.15 68.80 68.49
72.32 76.62 77.69 78.17 78.91 78.07 77.87 78.85 78.69 77.83 78.73 77.75 78.01 78.83 77.08 75.79 75.23 75.26 73.75 72.53 70.04 70.68 74.27 76.06 75.87 77.31 77.89 77.67 77.06 76.93 76.21 74.50 71.75 69.76 69.13 68.43 68.50 68.10 67.90 68.32 66.68 66.51 66.95
73.83 78.46 77.41 78.24 78.78 78.05 78.67 78.79 78.06 77.95 78.10 79.11 78.60 78.18 78.12 75.48 74.93 76.38 75.81 75.38 73.04 69.39 69.60 73.39 73.22 78.90 78.66 78.69 77.94 78.96 79.17 75.35 72.24 70.07 68.39 67.49 67.18 67.03 66.79 66.73 65.20 65.64 67.51
73.63 72.62 69.05 77.45 79.37 79.17 79.34 78.30 77.56 77.98 77.54 77.85 76.84 78.16 78.14 76.93 76.67 76.68 75.12 75.57 75.59 73.76 70.83 73.63 74.16 77.19 79.06 77.71 78.27 78.66 79.62 74.48 70.90 69.24 67.39 66.60 66.39 66.34 66.13 65.70 64.68 65.68 67.29
73.89 66.84 66.60 70.56 77.97 78.56 78.75 79.09 77.73 77.26 76.36 77.10 78.11 77.26 77.88 78.86 76.99 76.31 76.86 76.36 75.49 75.55 73.15 74.49 75.07 76.13 75.99 77.36 79.20 79.31 79.54 77.63 71.61 68.04 67.00 66.16 65.53 65.37 65.28 65.03 64.41 65.39 66.46
80.24 75.39 72.61 76.19 76.25 78.21 77.84 78.04 76.72 76.96 76.36 76.70 77.53 77.19 77.19 76.54 77.93 77.74 76.42 75.57 75.42 76.25 73.77 71.89 74.57 74.70 76.93 77.95 80.06 78.55 79.09 76.96 75.51 68.12 66.57 65.79 65.02 64.25 64.22 63.95 63.50 63.70 64.24
79.39 79.71 80.19 78.66 78.44 77.08 77.42 77.90 77.61 77.53 77.32 77.21 77.62 77.05 76.97 77.24 77.19 76.52 77.65 76.51 76.42 77.15 76.93 75.44 74.84 75.08 75.29 77.12 76.67 77.96 78.13 78.32 74.70 67.55 65.59 65.20 64.66 64.02 63.62 62.89 62.32 61.07 60.76
78.31 78.77 79.35 79.12 78.71 78.27 77.59 77.17 76.79 77.12 77.32 77.16 77.88 77.85 77.54 77.31 77.07 77.63 77.26 76.91 76.52 76.05 75.42 74.99 73.67 74.04 75.73 76.17 77.09 73.16 71.32 74.27 74.64 74.00 70.56 68.26 65.84 64.88 64.20 62.99 63.07 62.10 60.14
78.16 78.29 78.37 78.58 78.73 77.85 76.58 77.26 77.77 77.34 76.36 76.87 77.43 78.05 78.05 77.02 74.67 75.30 75.82 76.42 76.26 76.16 74.87 73.61 72.77 72.33 71.70 73.10 72.05 72.67 72.87 73.73 72.60 74.80 75.13 70.40 68.00 66.93 65.21 64.38 65.42 64.07 61.98
77.80 78.41 77.49 77.22 76.90 76.02 69.31 68.06 74.80 76.46 77.28 76.56 75.88 77.50 78.77 76.38 73.69 69.76 69.14 68.82 71.64 74.52 74.46 74.66 71.94 70.85 73.20 74.57 73.80 73.50 72.88 70.92 70.13 76.51 74.79 72.98 75.42 71.63 70.39 69.33 63.73 63.03 61.86
76.27 77.01 76.94 77.00 76.88 77.37 68.71 65.72 66.76 74.66 76.13 77.04 77.24 76.94 76.51 75.93 73.80 76.29 69.14 67.54 68.07 67.19 68.86 72.85 72.62 73.36 73.08 74.02 75.05 74.96 74.56 74.42 72.84 74.54 74.87 72.95 75.91 75.98 70.19 63.67 62.62 62.10 61.51
74.33 75.08 76.30 76.62 76.31 76.67 67.63 65.59 66.41 74.16 75.29 76.18 76.13 76.91 77.83 76.91 76.66 76.80 77.43 76.67 75.28 75.22 73.50 71.42 71.99 72.38 73.36 74.46 75.72 75.34 74.84 75.47 76.26 76.85 76.41 72.79 75.20 75.40 73.00 66.62 62.82 62.08 60.94
68.93 72.62 74.59 75.04 75.95 76.01 67.45 62.54 65.68 74.51 74.55 74.54 74.50 76.08 76.40 76.30 72.68 68.60 75.51 75.87 76.53 77.05 72.86 69.19 69.52 68.86 68.77 68.83 71.44 75.30 72.93 71.30 69.56 70.34 72.91 70.14 70.48 74.68 74.55 67.05 63.30 61.96 59.87
67.74 68.83 69.91 73.58 71.65 75.22 67.67 63.54 64.42 74.02 74.44 74.55 75.25 75.25 67.79 71.59 66.85 65.10 74.25 75.87 74.18 74.78 75.55 76.09 75.46 70.40 68.34 70.74 66.26 72.20 73.58 70.86 70.54 69.78 71.80 71.57 71.29 71.74 70.71 70.71 65.80 62.29 60.88

GFSMA_sfc_wetblb_105.txt.gz
Wetbulb
70.04 71.12 70.95 71.88 70.77 71.34 70.61 69.87 72.34 70.45 70.05 70.83 71.02 68.86 69.62 68.74 69.45 71.12 71.92 75.68 76.28 76.02 74.70 73.95 74.13 73.83 74.15 74.35 74.38 74.35 74.45 74.63 74.75 74.49 74.31 74.24 74.26 74.23 74.14 74.20 74.20 73.78 73.15
71.29 71.68 71.54 71.50 71.95 72.92 72.78 69.70 70.55 70.75 70.86 70.06 69.52 70.85 69.89 70.62 69.72 69.67 71.22 72.69 76.30 75.89 75.49 74.68 74.52 74.27 74.22 74.08 74.29 74.89 75.20 75.29 75.56 75.17 75.75 75.76 75.51 74.95 74.97 74.85 74.68 74.21 73.41
72.13 70.67 71.44 72.82 72.73 72.21 70.56 69.99 70.18 73.22 72.08 70.82 69.78 70.11 70.43 70.81 70.86 69.60 70.69 71.49 73.89 76.64 75.88 75.75 76.00 75.76 74.83 74.90 75.11 75.55 76.49 76.81 76.91 77.02 77.18 77.20 76.62 76.17 75.89 75.04 75.41 75.11 74.91
74.13 72.20 72.98 72.05 71.54 71.36 69.99 71.69 69.82 68.25 70.75 71.08 68.49 69.33 70.04 71.20 70.88 71.16 71.61 71.23 71.62 72.08 75.57 76.72 76.93 76.90 75.84 75.87 76.17 76.58 77.23 77.29 77.40 77.25 77.30 77.50 77.02 76.82 76.22 76.42 75.89 76.06 74.92
74.23 72.90 72.85 73.42 72.33 72.79 71.58 69.71 70.33 69.45 69.77 69.21 69.40 69.21 69.58 69.85 70.67 72.53 70.47 71.78 71.50 72.35 72.31 75.16 76.59 76.79 76.76 77.37 78.10 78.32 78.14 77.80 77.43 77.53 77.40 77.40 77.32 77.21 76.99 76.54 75.91 75.41 75.61
74.29 71.73 73.62 72.25 73.15 70.94 69.96 69.44 69.43 72.92 71.15 68.14 71.02 69.22 68.74 70.31 70.37 70.01 70.61 72.08 71.42 72.90 72.85 72.95 73.69 74.92 77.12 77.99 78.55 78.72 78.89 78.45 78.08 78.03 77.98 77.27 76.96 76.85 76.66 76.43 76.43 75.20 74.74
73.63 71.26 71.46 72.37 71.81 71.37 70.97 69.28 71.34 70.85 70.86 70.78 68.76 68.90 67.94 67.52 68.05 69.97 69.83 70.97 70.72 72.43 73.10 73.45 73.09 74.24 74.24 77.02 77.30 77.59 78.49 78.75 78.53 77.72 77.23 76.60 75.96 75.83 75.65 75.66 75.56 75.90 75.73
73.99 73.07 72.15 72.03 73.34 71.55 71.17 71.47 72.08 70.81 70.81 69.11 67.19 68.28 63.66 65.40 67.87 68.84 67.92 70.09 69.48 71.00 71.94 72.87 73.28 73.58 73.48 74.13 74.43 76.93 77.57 76.85 77.18 77.56 77.30 76.37 75.89 75.83 75.91 75.48 75.29 75.39 75.46
74.31 74.22 74.07 73.19 71.63 72.88 71.21 71.88 71.38 70.48 68.37 68.96 68.81 68.48 64.14 63.19 64.15 66.33 66.98 68.46 68.74 70.42 71.27 72.69 73.24 73.98 73.92 75.26 76.75 76.79 76.38 75.74 76.14 76.42 76.45 76.33 76.09 76.01 75.94 75.79 75.02 75.02 74.95
74.39 73.48 74.11 73.32 73.42 71.72 71.71 72.28 73.79 72.73 71.77 69.67 70.16 69.49 69.05 68.76 65.60 62.76 67.51 68.67 70.07 70.25 70.53 72.19 73.06 74.00 74.06 75.45 76.93 76.92 76.22 75.01 74.96 75.19 75.49 75.86 75.55 75.43 75.08 74.72 74.11 73.56 73.87
74.39 74.12 73.78 73.51 72.98 71.15 71.15 71.42 72.65 72.25 72.78 71.95 70.41 70.94 68.52 70.80 70.21 66.76 66.42 68.68 69.91 70.97 71.40 71.45 73.62 73.62 75.39 74.81 73.98 74.98 75.61 74.54 73.67 73.92 73.95 74.53 74.31 74.04 73.69 72.78 71.79 71.46 71.33
72.77 73.96 74.16 73.22 72.82 72.84 71.73 72.90 72.75 72.97 72.66 72.76 73.41 71.44 70.71 67.78 67.42 64.19 67.48 67.79 67.50 68.66 70.55 71.69 70.73 72.21 74.89 74.57 76.38 76.30 75.61 74.23 73.10 72.36 71.99 72.22 72.27 72.02 71.76 71.65 70.81 69.38 69.44
71.69 72.13 73.69 73.84 73.49 72.84 72.58 73.64 73.39 72.53 72.93 72.91 72.41 72.76 72.81 69.73 70.37 69.61 67.07 66.26 67.96 69.03 70.27 71.73 70.99 72.39 74.89 74.13 74.17 75.66 75.84 73.87 72.17 70.83 70.14 69.93 69.96 69.55 69.71 69.52 68.33 68.51 68.74
71.14 71.43 74.50 74.17 73.77 74.32 74.24 73.40 72.26 72.91 73.59 72.30 72.73 72.18 72.87 72.36 70.80 70.32 65.46 67.60 65.52 66.93 68.82 70.38 72.72 73.88 73.72 74.08 74.72 76.00 74.74 73.38 71.73 69.97 68.73 68.25 68.21 67.73 68.10 66.96 67.41 68.01 68.85
73.28 73.85 73.86 74.14 74.11 73.74 73.77 73.78 72.64 72.07 72.69 72.98 71.92 72.96 72.83 72.20 72.97 72.39 70.28 70.33 67.82 64.53 65.10 68.85 69.11 74.75 74.19 73.71 74.64 75.53 75.61 75.47 71.74 69.79 68.08 67.27 67.05 66.84 66.89 66.04 66.46 67.85 68.86
71.31 70.43 70.70 72.50 73.79 74.14 74.07 72.68 72.50 73.26 73.36 72.13 73.14 70.93 72.18 72.84 73.14 72.75 72.62 71.80 70.43 67.78 65.53 68.74 70.08 71.19 75.36 73.89 75.50 75.28 75.25 74.12 71.14 69.21 67.32 66.32 66.19 66.37 66.02 65.47 66.04 68.13 68.41
71.31 68.77 69.36 68.02 70.26 73.57 73.86 73.43 72.92 72.43 72.52 72.66 72.77 72.43 72.23 73.29 72.42 72.34 73.00 71.90 71.32 71.16 67.31 68.60 71.05 70.98 71.82 72.01 73.64 76.52 75.92 75.38 71.38 68.18 67.02 66.10 65.35 65.55 65.28 65.07 66.28 67.09 68.48
71.30 69.99 67.42 67.75 70.05 73.28 73.50 72.95 72.00 72.92 72.47 71.59 72.48 72.79 71.94 74.35 71.69 73.05 71.82 71.59 70.76 70.98 69.46 67.35 70.17 72.01 73.07 72.65 72.78 75.46 75.43 77.29 72.56 68.42 66.15 65.70 64.69 64.37 64.13 64.17 64.48 64.95 66.43
72.57 70.51 69.80 71.50 72.68 73.30 73.53 74.11 74.10 73.16 72.85 73.02 73.04 72.96 72.23 72.11 71.65 72.27 71.90 71.69 71.97 73.27 72.19 70.98 70.42 71.83 71.71 72.40 73.36 72.25 70.25 72.04 71.77 67.49 65.35 65.19 64.42 63.82 63.49 62.87 62.10 62.29 63.48
73.92 73.99 73.69 74.07 73.14 73.97 73.71 73.59 73.89 73.68 73.48 73.37 73.66 73.65 73.67 73.12 72.62 72.50 72.72 71.58 71.81 71.52 71.03 70.64 70.39 70.28 71.27 72.11 70.67 68.38 68.53 70.87 69.58 71.72 68.72 66.43 65.30 64.42 64.02 62.84 62.62 62.19 61.03
74.37 74.34 74.24 74.78 74.86 74.69 74.82 73.84 73.65 73.52 72.95 72.63 72.99 74.09 74.56 74.30 73.54 73.37 73.59 72.55 72.37 71.76 71.96 71.02 69.17 67.57 67.00 68.92 69.24 70.03 68.83 69.47 68.80 69.38 69.11 66.44 65.14 64.51 63.39 63.61 64.56 64.77 62.55
72.88 73.53 73.73 73.07 72.83 75.42 70.37 68.35 72.23 73.07 73.62 72.24 71.89 72.84 73.99 74.47 73.42 70.47 69.75 69.91 71.27 69.32 67.96 69.01 69.11 68.17 67.58 69.19 69.89 69.37 70.21 69.09 67.83 72.65 71.23 71.58 67.96 66.73 67.20 63.96 64.66 63.81 61.94
71.17 71.77 72.45 73.26 73.32 73.94 69.04 66.42 66.39 70.55 72.71 73.45 73.29 73.22 73.47 74.64 71.80 73.28 70.07 66.76 66.41 66.58 67.90 67.60 66.43 67.40 68.23 69.44 69.18 69.11 69.14 69.54 69.54 71.37 71.90 71.29 72.06 71.84 70.20 66.39 63.68 62.77 61.35
68.30 69.09 71.39 72.49 72.86 73.58 68.09 65.42 65.68 67.94 69.84 70.70 71.90 72.62 72.91 72.18 72.31 73.02 73.97 73.55 71.78 70.86 69.63 68.72 69.05 70.01 69.40 70.27 70.06 70.48 70.61 70.79 71.77 72.26 73.55 69.82 69.77 71.08 67.63 64.86 62.63 62.15 60.82
66.75 67.81 68.87 68.17 69.79 72.35 66.89 63.37 65.05 68.84 70.27 70.98 71.34 71.79 72.59 72.35 70.30 68.36 71.96 71.68 72.64 74.14 72.13 67.51 67.33 67.36 67.46 67.88 69.37 72.31 71.19 69.09 69.84 69.12 68.56 67.69 67.78 68.36 68.28 65.08 62.43 61.93 59.84
64.75 66.59 66.50 66.84 66.62 69.09 65.97 62.54 63.27 69.79 71.49 70.22 71.99 72.02 66.65 69.11 65.25 64.46 70.83 71.73 71.69 73.02 72.51 73.36 70.97 68.15 66.95 69.19 66.19 69.49 71.05 69.16 69.64 68.06 69.07 67.91 66.50 66.76 67.31 67.96 62.61 60.94 59.62

GFSMA_sfc_wetblb_111.txt.gz
Wetbulb
68.77 69.59 70.00 69.93 70.11 69.15 69.22 68.97 69.29 70.33 67.75 66.64 69.05 70.42 69.09 68.95 69.57 70.64 71.16 74.70 75.00 75.81 74.89 74.41 74.21 74.44 74.13 74.29 74.62 74.82 74.85 74.98 75.12 75.13 75.15 75.01 74.94 74.67 74.55 74.58 74.14 74.21 74.22
68.09 68.76 69.38 69.53 69.51 69.99 69.85 68.29 69.05 70.52 67.32 67.08 66.89 68.15 68.09 67.85 68.51 70.14 71.05 71.99 75.61 75.14 75.14 74.77 74.45 74.39 74.78 74.96 75.06 75.03 75.08 75.59 75.82 75.85 76.22 75.90 76.00 75.75 75.35 75.02 74.47 74.66 74.59
69.41 68.85 69.21 68.97 69.43 69.56 67.69 69.03 70.24 67.50 68.78 68.61 67.22 67.17 67.12 67.26 67.39 68.07 68.73 69.67 70.87 75.50 74.99 74.79 75.34 75.63 75.49 75.56 75.61 76.24 76.97 76.95 76.98 77.13 77.06 76.63 76.18 75.54 75.24 75.47 75.00 74.65 74.45
69.95 69.97 69.85 69.52 70.26 69.33 69.16 69.05 67.56 67.32 68.74 68.88 66.96 67.30 67.90 68.39 68.71 67.55 67.96 68.49 69.41 70.91 73.10 76.09 76.68 76.69 76.11 76.42 76.84 77.64 78.00 77.86 78.04 77.91 77.63 77.08 76.68 76.45 75.55 75.37 75.02 75.02 74.60
71.84 70.66 70.42 70.00 70.42 70.20 68.84 68.42 68.66 68.84 67.46 66.60 67.67 67.45 67.49 68.41 68.71 70.28 68.34 68.81 68.70 69.83 69.83 71.85 74.87 76.17 76.49 77.62 78.18 79.04 79.22 78.80 78.27 78.04 77.78 77.20 76.87 76.42 76.35 75.65 75.25 74.60 74.60
71.90 72.28 70.81 70.99 70.10 68.69 68.20 67.75 68.15 69.61 68.71 67.78 68.17 68.17 67.51 67.97 69.09 68.41 68.77 70.35 69.83 70.38 70.23 70.00 70.36 71.25 74.70 76.38 77.72 78.18 78.76 78.44 78.32 77.26 76.85 76.16 76.05 76.14 76.12 75.66 74.70 74.55 74.95
71.34 71.59 71.13 70.43 70.28 69.37 68.15 70.38 70.16 68.84 68.42 67.70 66.17 66.12 65.73 66.49 66.01 67.58 68.27 68.57 68.95 70.39 70.92 71.65 71.40 71.61 72.19 75.37 76.34 77.43 77.95 78.27 77.77 77.23 76.67 75.83 75.74 75.59 75.29 75.09 74.62 74.09 75.19
70.88 70.64 70.21 69.67 69.76 69.69 69.30 69.35 69.94 68.36 67.28 66.94 66.45 64.30 61.50 62.86 64.54 66.08 66.21 67.77 67.75 68.84 69.71 71.66 71.74 72.02 72.16 72.39 73.98 77.06 76.99 76.85 76.22 76.53 76.38 75.96 75.67 75.36 74.94 74.31 73.87 74.29 74.26
71.57 71.09 71.03 70.37 70.81 70.30 68.92 69.60 70.34 69.69 68.20 68.72 67.78 65.68 61.76 59.77 62.27 63.55 65.55 66.78 66.97 66.90 68.93 70.05 71.51 71.61 71.77 71.97 74.67 75.10 76.08 75.27 75.61 76.02 76.30 76.12 75.66 74.98 74.66 73.71 72.41 72.11 73.89
72.40 72.93 72.28 71.47 71.51 70.73 69.83 70.54 72.39 70.40 69.36 68.69 68.93 68.82 67.01 66.07 61.49 61.12 64.51 67.38 68.46 68.72 68.47 68.79 69.77 70.46 71.53 72.38 75.18 76.20 75.88 75.52 74.56 74.99 75.25 75.32 74.98 74.34 72.78 71.67 70.39 70.43 71.83
71.91 72.45 72.08 71.53 70.11 69.51 70.05 70.89 70.73 70.39 71.03 70.25 69.24 68.36 67.34 64.71 64.93 63.96 62.60 65.74 68.35 67.73 68.75 69.57 69.73 70.80 71.93 73.77 72.98 73.30 74.92 74.93 73.65 73.60 73.62 73.73 73.61 72.66 71.82 70.98 69.35 68.80 70.55
71.20 71.36 72.30 71.83 70.77 69.65 69.48 71.32 71.27 70.37 70.70 70.86 70.82 69.62 67.01 65.74 61.90 65.23 63.72 64.44 65.49 67.49 68.02 70.02 69.98 71.35 73.37 73.32 75.83 75.27 75.25 74.51 73.34 72.44 71.88 71.51 71.60 71.21 70.84 70.70 70.09 69.34 71.74
70.18 71.19 71.06 70.82 70.46 70.87 70.23 71.75 70.75 70.55 70.77 69.97 70.18 70.42 69.85 68.98 68.47 65.20 63.63 63.76 64.88 66.36 67.56 70.42 71.33 71.79 73.44 72.59 73.09 74.35 74.95 72.51 72.03 70.19 69.85 69.65 69.12 69.40 69.56 69.72 69.85 70.34 71.57
70.59 71.27 71.69 71.64 71.61 71.42 71.16 71.51 70.71 70.71 71.02 70.63 70.14 70.67 70.60 70.03 70.27 67.76 61.86 64.94 63.42 64.44 66.12 66.87 69.89 72.24 72.45 72.39 73.66 74.10 73.17 71.82 71.39 68.85 68.23 68.05 67.46 67.90 67.90 67.91 68.57 70.35 72.50
70.69 70.87 71.98 72.41 72.03 71.94 71.97 71.23 70.62 70.73 70.51 70.41 70.23 69.63 70.05 70.70 70.82 70.41 68.93 68.08 65.50 62.79 63.68 66.74 67.78 70.58 71.18 72.58 72.97 72.74 72.64 71.70 71.28 68.20 67.39 66.90 66.31 66.95 66.50 66.94 68.55 68.92 69.96
70.15 70.66 71.65 72.58 71.98 71.66 71.70 71.31 70.76 70.36 70.48 70.64 70.35 69.91 69.59 70.73 70.48 70.38 70.30 69.01 67.94 66.04 64.06 66.35 68.41 69.65 70.81 72.50 73.09 72.12 73.38 72.71 69.95 67.62 66.41 66.15 65.83 66.28 66.06 66.23 68.38 68.34 69.05
70.04 70.69 70.69 71.50 71.84 71.67 71.48 71.05 70.07 70.12 70.09 69.63 70.48 70.21 69.99 70.06 70.94 69.73 70.44 69.50 68.94 68.29 66.70 67.94 68.18 69.77 70.27 70.69 71.02 71.22 71.70 71.10 70.16 67.26 66.21 65.81 64.90 65.19 65.48 65.24 67.19 67.03 68.63
70.06 69.02 68.69 69.08 70.11 70.50 71.49 71.73 70.76 71.45 70.69 69.50 69.76 69.49 69.68 71.47 69.61 69.67 70.18 69.41 69.47 69.21 68.32 66.12 68.09 69.03 70.16 70.50 70.49 69.07 69.82 71.48 69.05 67.97 65.78 65.21 64.32 64.01 63.93 63.93 64.89 64.76 67.35
69.80 69.07 66.79 68.40 67.79 68.65 70.46 71.44 71.33 71.01 70.30 70.44 70.54 69.36 70.06 70.13 69.23 68.58 68.67 69.02 68.85 69.83 69.33 68.39 67.73 69.22 69.95 69.92 69.24 68.98 68.78 68.52 70.66 67.44 64.75 64.76 64.50 63.69 63.25 62.66 63.21 62.27 63.53
69.77 69.73 67.98 66.66 67.27 66.73 69.49 71.60 72.01 71.49 71.14 71.39 71.43 71.15 71.36 71.26 70.66 69.80 69.40 69.45 69.59 68.82 68.52 67.98 67.94 68.32 68.34 67.83 68.29 67.01 66.90 66.57 67.92 70.10 68.11 66.29 65.59 64.96 63.73 62.41 62.84 63.15 61.00
71.11 70.77 70.07 68.97 68.71 69.48 70.76 70.90 71.29 71.23 71.15 71.25 71.70 71.91 71.85 72.03 70.72 70.17 71.47 71.11 70.27 69.48 68.93 68.09 67.55 66.36 65.96 65.40 64.68 66.48 66.25 66.12 67.10 67.64 69.17 67.26 66.05 64.80 64.37 63.65 64.40 65.31 62.28
68.63 69.56 70.64 71.71 71.03 73.18 68.66 67.10 70.51 71.02 71.16 70.83 70.57 70.96 71.31 70.84 70.44 68.54 67.93 67.89 70.31 70.06 68.56 67.40 66.48 65.58 65.05 64.90 65.67 66.37 65.33 64.60 64.02 68.86 68.68 68.43 68.14 68.84 67.55 64.38 64.54 63.52 62.55
67.60 68.16 68.12 68.23 68.39 69.60 63.13 63.59 66.05 69.38 70.35 70.43 70.51 70.74 71.09 72.95 70.12 71.23 69.22 66.46 66.52 65.58 67.88 69.00 66.77 65.92 65.06 65.95 66.05 65.23 65.18 65.29 65.28 67.71 69.24 68.79 68.05 68.12 69.55 68.68 63.66 62.29 61.48
64.42 65.59 66.83 67.44 67.12 68.79 62.27 62.06 64.15 67.08 68.21 68.41 68.52 69.31 70.03 70.76 70.98 70.67 70.63 70.02 70.05 70.61 69.69 67.67 67.45 68.50 67.56 68.31 67.23 67.36 67.01 66.52 67.51 68.72 70.37 67.17 66.03 66.61 67.53 68.68 64.89 62.64 60.66
63.41 64.02 65.28 65.91 66.18 67.26 62.81 60.82 63.67 67.71 68.36 68.34 69.31 69.80 69.87 69.85 65.78 63.27 68.52 69.22 69.77 70.36 68.91 65.41 64.51 64.23 64.05 64.08 65.74 67.78 67.03 66.37 67.96 66.58 68.27 67.26 66.41 65.44 65.69 67.17 66.12 62.35 60.00
62.52 63.29 63.55 64.76 63.87 66.78 63.33 61.72 62.97 68.00 66.98 68.02 68.95 69.54 61.12 62.98 57.13 57.47 64.92 66.79 67.17 68.65 68.62 67.42 68.15 68.15 67.04 67.69 64.03 68.08 69.05 68.09 67.87 65.27 67.91 67.35 65.73 64.85 64.26 65.99 65.01 62.25 60.45

GFSMA_sfc_wetblb_117.txt.gz
Wetbulb
74.60 74.64 75.41 75.13 75.22 75.94 75.45 75.31 75.49 74.98 74.04 73.85 75.91 76.62 75.48 75.51 73.81 74.46 74.30 72.82 74.30 74.82 74.79 75.71 75.72 75.81 75.52 75.75 76.06 76.23 76.52 76.80 77.17 76.77 76.42 76.12 76.50 75.98 76.10 75.62 75.16 74.40 74.07
74.86 75.06 75.28 75.09 75.71 76.01 75.80 75.79 75.42 75.57 74.88 74.62 74.51 76.29 75.83 75.62 74.38 74.18 74.82 75.34 73.48 75.45 75.41 75.00 75.31 75.82 76.07 76.43 76.80 77.49 76.90 77.23 76.74 77.31 77.28 76.53 75.99 76.04 76.25 76.45 75.63 74.83 74.06
75.94 75.53 75.34 75.50 75.99 76.43 76.25 75.93 75.42 76.18 75.51 74.62 74.31 75.21 75.55 74.99 74.55 74.75 75.08 75.00 75.46 73.61 73.58 74.92 75.80 76.25 76.48 76.95 77.49 78.12 78.30 77.54 77.28 77.21 77.01 76.59 76.27 75.44 76.34 76.31 76.05 75.38 74.23
76.30 76.19 76.16 76.17 77.02 76.62 75.93 75.45 75.64 75.66 75.26 75.85 75.26 75.48 75.46 75.30 75.70 75.87 75.90 75.51 75.64 75.39 76.56 74.67 74.38 74.96 75.79 76.93 78.28 78.22 78.23 77.62 77.65 77.39 76.97 77.02 76.14 76.05 75.62 76.31 75.50 75.18 74.91
75.97 77.28 76.26 76.54 77.39 77.06 75.61 75.52 76.09 75.84 74.82 74.67 74.33 75.46 75.86 75.43 75.46 75.44 75.79 75.74 76.28 76.24 76.27 76.95 74.77 74.67 75.35 76.79 77.42 78.13 78.52 78.06 77.68 77.26 77.22 76.95 76.69 76.06 75.39 75.46 75.75 75.23 74.64
76.73 76.94 76.13 77.00 76.92 76.18 75.70 76.39 76.55 75.76 74.76 73.88 73.50 74.36 75.76 75.97 75.90 75.74 75.20 75.46 75.87 76.15 76.51 77.30 77.23 77.21 76.14 75.77 76.52 77.06 78.62 78.46 77.64 77.21 77.45 76.87 76.27 75.27 74.44 73.92 74.42 75.10 74.77
76.77 77.24 76.57 76.85 76.91 76.11 76.39 77.04 76.86 75.57 74.95 75.50 75.01 74.07 74.49 74.65 75.29 75.58 75.52 75.45 75.72 75.91 76.44 76.91 77.33 77.27 77.46 77.20 76.48 77.47 78.24 78.24 77.66 77.58 77.53 76.63 75.86 74.71 72.80 72.29 72.99 74.99 74.71
76.41 77.13 76.88 76.55 76.80 76.49 76.58 77.22 77.08 75.55 75.45 75.39 73.78 73.61 70.12 71.91 73.84 73.45 74.74 74.55 75.12 75.38 76.46 77.31 77.74 78.45 78.32 78.45 78.22 77.14 77.12 77.08 76.77 76.86 77.10 76.08 74.62 73.28 71.71 71.51 71.99 74.67 74.27
76.17 76.39 76.66 76.62 77.36 77.17 75.71 76.82 77.03 76.74 74.37 75.34 75.61 73.06 70.43 68.45 71.75 73.94 74.45 75.12 76.33 76.16 76.72 77.56 78.41 78.88 79.75 79.05 79.12 79.17 77.11 76.27 76.30 75.97 75.81 75.04 73.34 72.30 71.26 70.41 71.23 74.38 74.03
76.66 76.09 76.41 76.36 77.67 77.16 76.94 77.88 77.44 77.11 76.91 74.50 76.22 74.88 74.90 74.46 71.72 69.74 74.12 75.50 76.20 76.05 77.02 77.30 78.51 79.42 79.73 79.06 79.02 78.05 76.27 76.02 75.94 74.82 74.89 73.94 72.90 72.48 71.44 70.07 70.92 74.24 74.12
77.00 76.35 76.75 76.83 77.33 77.16 77.36 77.95 77.42 77.66 76.66 75.04 74.63 75.50 74.81 72.55 74.42 72.50 70.52 72.75 76.11 76.20 76.79 77.82 78.60 78.22 78.71 79.17 78.79 77.48 75.64 75.30 75.04 73.50 73.34 72.38 72.65 72.72 71.97 70.99 71.71 74.24 74.27
75.75 76.67 77.03 77.03 77.24 77.00 76.78 77.88 77.61 77.00 76.83 76.65 75.80 76.03 74.81 73.60 72.47 71.94 71.57 73.08 73.30 75.02 77.07 77.85 77.74 78.04 77.94 77.94 78.55 75.49 75.52 73.87 73.88 72.49 71.49 71.00 71.57 72.16 71.91 72.70 73.83 75.07 75.01
75.59 76.06 77.03 76.92 76.66 77.10 76.55 77.95 77.91 77.47 77.38 76.24 77.00 75.27 76.15 75.56 75.17 73.28 74.07 72.94 73.25 75.25 76.33 78.25 77.36 77.55 77.39 77.51 77.95 75.49 74.19 72.05 72.37 70.80 69.81 69.65 69.95 70.39 70.68 72.28 73.02 74.42 75.67
78.18 77.16 76.41 77.15 77.08 77.11 76.77 77.55 77.22 77.18 77.87 77.24 76.00 76.83 76.37 76.09 76.50 75.49 74.35 73.41 72.07 73.46 75.00 74.54 77.16 77.14 77.70 77.45 76.62 75.26 75.86 70.35 70.71 69.45 68.44 68.10 68.50 68.90 69.46 69.73 70.75 71.97 75.56
77.19 76.50 76.88 76.74 76.89 76.80 76.92 77.20 76.42 76.97 77.32 77.38 77.58 77.31 76.93 77.32 77.54 77.09 76.62 75.80 73.13 69.50 70.57 74.41 73.90 77.67 77.28 77.59 76.08 77.44 76.31 69.57 69.90 68.81 67.81 67.03 67.59 67.49 68.22 69.18 68.94 70.09 71.56
76.62 76.90 76.62 76.60 77.22 77.19 77.27 77.05 76.39 77.00 76.57 76.46 76.40 77.30 77.53 77.72 77.52 77.48 77.20 76.56 76.12 73.00 69.99 74.58 74.26 76.25 77.77 77.49 77.05 78.18 76.61 72.42 69.44 68.29 67.62 66.83 67.01 66.98 66.73 68.13 69.21 69.51 70.28
76.35 76.40 76.54 76.80 76.89 76.99 77.04 76.96 77.10 76.54 76.04 76.44 76.69 76.89 76.63 77.04 76.46 76.67 77.13 76.81 75.80 75.12 71.26 72.71 75.35 76.43 77.25 77.89 78.34 78.11 76.34 74.84 74.67 68.67 67.60 67.10 66.23 66.22 66.14 66.15 67.47 67.76 69.47
75.92 76.15 76.26 75.98 76.07 76.56 76.73 76.54 75.83 75.61 75.93 75.54 75.72 76.35 76.03 75.39 76.65 77.13 75.82 76.51 76.01 76.71 74.06 73.77 75.68 75.30 76.63 77.77 77.66 77.08 75.74 75.18 76.23 69.24 67.22 66.86 66.31 65.30 65.15 65.49 65.41 66.29 67.09
76.16 75.59 75.32 75.15 75.24 75.79 76.63 76.45 76.67 76.13 75.82 76.08 76.11 75.91 75.86 75.91 76.37 75.89 76.24 75.64 75.85 76.10 76.18 74.61 74.41 76.07 76.50 76.94 76.33 77.22 76.83 77.39 76.04 70.35 66.98 66.44 65.89 65.28 64.35 63.50 63.48 64.29 63.84
76.07 75.41 75.29 74.92 74.46 74.55 75.14 75.58 76.27 76.45 76.27 76.11 76.47 76.05 75.80 75.91 76.17 76.69 76.44 77.02 76.87 76.53 76.91 75.21 74.70 74.41 75.50 76.89 75.83 74.48 74.13 75.93 75.70 76.73 72.93 70.21 68.36 68.17 65.39 63.32 62.89 63.06 61.62
76.23 76.13 75.48 75.12 74.16 73.74 73.73 74.31 74.86 75.30 75.69 75.41 76.14 76.55 76.59 74.93 71.83 72.42 76.71 78.05 76.83 74.33 73.57 73.38 72.81 73.50 73.24 73.94 74.03 74.27 73.73 74.44 76.26 77.00 75.88 75.38 75.30 75.93 74.98 66.49 68.44 65.15 62.49
74.43 74.99 74.77 75.47 75.87 75.05 63.64 65.70 70.70 74.65 75.92 76.22 76.16 76.69 77.28 73.64 73.27 68.08 67.63 67.65 72.02 76.32 76.51 73.54 73.51 73.26 75.00 74.88 73.94 73.42 72.80 71.62 69.65 75.24 75.64 73.41 75.26 74.88 75.23 76.09 69.08 66.01 62.33
72.55 72.73 72.63 72.35 71.81 71.64 62.42 63.64 66.79 76.11 76.59 76.65 76.93 76.96 76.82 75.72 73.70 76.67 70.99 67.13 67.40 65.92 67.88 76.31 75.30 75.48 75.01 75.80 75.86 74.92 75.04 74.41 73.48 75.08 75.68 73.41 74.75 74.09 75.71 76.66 67.61 63.96 62.12
69.39 69.78 70.29 71.32 71.55 69.78 61.22 61.15 63.89 75.22 75.92 75.26 75.53 75.64 75.60 75.82 74.47 72.90 75.63 75.97 76.30 76.61 76.28 75.01 75.87 76.27 76.83 77.28 76.89 76.46 75.82 75.38 75.52 75.95 77.48 72.61 74.89 74.48 76.22 76.71 68.84 64.45 61.67
67.13 67.28 68.88 69.26 70.28 70.16 61.12 61.42 67.00 71.68 73.09 73.32 73.69 73.72 73.74 75.01 60.30 60.26 73.49 74.85 75.41 75.91 70.67 66.53 65.45 64.78 65.14 65.21 67.66 73.49 73.70 73.43 72.65 73.63 76.62 74.42 74.57 74.67 75.51 75.68 76.17 64.79 61.14
64.48 65.51 67.51 68.15 63.17 65.41 56.47 56.71 62.62 67.43 66.69 68.12 70.12 68.10 61.33 62.97 58.34 57.21 67.38 70.87 72.53 73.82 73.97 74.48 75.21 73.03 69.43 74.08 64.84 73.12 74.28 72.63 72.50 71.61 76.06 74.35 74.32 74.64 72.49 75.64 76.20 76.59 75.93

GFSMA_sfc_wetblb_123.txt.gz
Wetbulb
76.26 76.05 77.09 75.13 76.81 75.36 75.18 75.47 75.13 74.67 74.53 75.37 75.55 75.32 74.37 74.99 74.89 74.33 74.57 74.31 73.62 74.22 74.45 74.92 75.61 76.04 76.67 77.12 77.62 78.21 78.29 77.76 77.29 77.14 77.05 76.59 75.91 76.43 76.45 76.60 75.37 74.81 74.58
76.50 76.09 76.90 74.85 75.26 75.69 75.53 76.25 77.13 74.80 74.53 74.55 74.85 75.29 75.21 75.46 76.67 77.20 76.35 75.98 75.50 75.11 75.60 75.63 75.94 76.43 76.83 77.35 78.12 79.15 79.24 78.15 77.47 77.13 76.97 77.02 76.11 75.97 75.60 76.19 75.63 75.14 74.78
77.82 77.57 75.26 75.08 75.46 76.46 77.77 76.60 77.06 76.23 74.39 73.98 74.74 75.27 75.32 76.44 76.31 77.14 76.39 76.93 76.42 76.26 76.03 75.61 75.75 76.09 76.38 77.06 78.44 79.60 79.15 78.65 78.27 77.74 77.69 76.68 76.51 76.43 76.01 75.97 76.07 75.81 75.12
77.35 78.07 77.54 76.06 76.58 76.55 75.15 74.95 75.22 74.18 74.52 74.21 74.80 74.69 75.27 75.84 76.70 77.05 76.84 76.90 76.69 77.56 77.08 77.31 77.02 76.58 76.09 77.34 78.91 79.21 79.25 79.17 78.42 77.80 77.82 76.66 75.91 75.46 75.13 75.51 75.30 75.87 75.16
77.36 78.84 77.04 76.28 79.61 75.04 75.50 76.76 74.39 75.94 74.51 74.00 73.64 74.47 75.73 76.04 76.32 75.55 76.60 77.18 77.06 76.91 77.59 78.45 78.36 77.37 77.20 76.46 77.25 78.84 79.81 79.47 78.60 78.04 77.75 75.98 74.16 73.23 73.14 74.37 76.14 75.48 74.96
77.14 78.65 76.32 76.99 78.49 76.77 75.20 75.94 78.44 75.94 75.40 74.84 72.93 73.93 74.88 75.47 76.73 75.43 76.06 75.95 76.64 76.89 77.60 79.34 78.29 77.86 78.46 77.21 77.64 78.77 79.50 79.40 79.01 78.30 76.51 74.36 72.79 72.24 72.30 73.62 75.98 75.28 74.73
77.61 78.03 76.76 76.69 77.97 76.79 77.49 77.76 77.16 76.31 74.17 75.81 74.39 72.81 73.63 75.17 75.52 74.99 75.49 75.36 75.78 76.60 77.41 78.20 78.83 79.07 78.49 79.24 79.04 78.85 78.32 78.69 78.39 77.07 75.08 73.59 72.15 71.80 71.85 73.83 75.73 74.85 74.37
77.43 76.87 77.58 77.49 75.19 75.74 77.81 78.00 78.87 76.43 74.12 75.56 73.43 72.38 69.64 71.70 73.14 74.83 75.87 75.76 76.32 76.32 76.53 78.15 79.63 80.29 80.22 78.89 80.09 78.48 77.51 78.16 77.52 76.61 74.57 73.64 72.40 71.33 72.36 74.85 74.94 74.47 74.06
76.69 77.61 77.31 78.67 77.27 78.34 75.70 78.20 78.23 78.28 75.90 75.14 77.35 74.49 71.66 68.74 70.79 74.55 75.96 76.22 77.40 75.87 76.96 78.57 79.04 79.33 80.90 79.22 79.38 79.15 77.14 77.07 76.52 75.72 74.62 73.86 72.62 71.85 73.74 75.56 74.71 74.28 73.90
76.39 77.15 77.31 77.53 77.84 77.54 78.55 77.53 77.29 79.18 79.74 74.82 74.99 75.13 76.29 76.22 72.41 69.22 73.92 75.35 77.35 76.78 78.21 77.94 77.09 78.66 79.62 78.10 79.55 76.20 76.23 76.13 75.50 74.49 74.33 73.83 72.98 72.92 74.85 75.49 74.68 74.04 73.10
76.95 76.50 77.41 77.54 77.64 75.86 78.18 78.41 78.90 80.01 78.09 77.78 77.07 74.82 76.17 74.39 75.88 72.50 67.56 73.50 75.09 75.81 76.99 77.27 77.58 77.44 77.98 78.22 77.78 76.00 75.59 75.41 74.48 73.04 73.31 73.39 73.51 73.62 75.01 75.43 74.58 73.80 72.83
75.99 77.67 77.16 77.83 78.09 78.41 77.68 77.62 78.74 78.94 79.45 79.35 78.50 78.33 74.85 73.58 72.53 72.87 72.61 73.02 72.40 75.28 76.46 77.26 77.00 77.00 77.15 77.44 77.07 75.91 75.09 74.30 72.96 71.72 71.69 72.38 73.04 74.16 74.88 75.73 75.06 74.28 73.34
74.65 78.07 77.92 77.85 77.46 78.67 78.25 79.17 78.90 78.40 78.55 78.27 79.14 77.41 76.20 75.71 75.49 74.67 73.13 72.24 72.09 73.70 74.99 75.45 76.37 77.32 76.67 76.51 77.49 75.91 73.95 73.06 71.99 70.56 70.19 70.58 71.15 72.81 73.85 75.41 75.48 75.18 74.43
75.34 76.86 77.50 77.88 78.03 78.42 77.95 78.65 77.71 76.87 78.81 77.76 77.88 79.50 77.16 75.82 76.15 75.82 74.63 73.14 71.19 70.37 70.57 72.01 77.07 77.27 76.89 75.32 76.39 76.01 74.98 71.70 71.61 70.19 69.24 69.13 69.71 70.35 71.06 72.41 73.16 75.73 74.66
76.06 76.84 77.88 78.22 77.63 77.96 78.00 78.56 76.39 77.11 78.13 77.84 78.00 78.01 77.29 76.13 75.96 76.22 75.83 75.04 72.85 69.57 70.21 74.36 71.44 79.02 77.24 75.92 76.61 76.92 77.13 69.95 72.03 70.35 68.74 68.60 68.35 69.05 69.66 70.23 70.88 72.58 74.10
76.63 77.14 76.93 76.85 77.23 77.74 77.79 78.62 78.33 79.03 77.82 76.93 76.05 78.03 78.41 76.07 76.92 76.01 75.25 75.05 74.46 72.46 69.89 72.74 73.34 77.77 78.45 76.89 77.14 78.85 78.29 72.96 71.82 70.58 69.05 68.30 68.35 68.29 68.78 69.64 70.26 71.01 73.52
77.95 77.25 77.22 77.21 76.93 76.83 77.50 78.14 78.41 77.81 77.07 77.30 77.24 77.25 76.87 79.64 76.24 75.30 76.05 75.46 74.18 74.19 72.16 72.03 73.26 77.75 78.78 77.48 78.20 79.59 78.13 77.81 75.32 70.15 69.73 68.88 67.94 68.08 68.68 68.91 69.90 70.52 70.51
78.32 77.83 77.40 77.47 77.25 77.02 77.79 77.01 76.29 75.92 75.92 75.76 75.80 76.87 76.00 75.12 78.84 80.37 75.28 79.46 77.29 77.72 73.30 76.47 75.77 75.18 79.26 78.23 78.70 80.25 77.40 75.91 76.69 70.10 69.07 68.53 67.78 67.15 66.90 66.90 68.26 68.62 67.77
78.13 77.43 78.09 77.19 77.34 76.99 77.31 77.44 77.43 76.87 76.27 75.84 75.74 75.55 75.61 76.19 77.76 76.32 77.32 76.36 74.75 75.12 75.77 72.28 72.83 74.89 75.61 76.97 78.04 80.26 80.37 79.15 76.64 69.51 67.51 67.39 67.22 66.76 65.80 64.89 64.78 64.43 64.48
77.04 77.14 77.71 77.31 77.14 77.28 77.50 77.23 76.86 77.03 76.70 76.21 76.09 76.06 75.82 75.62 76.17 76.85 76.77 78.12 77.66 76.35 76.15 73.63 72.75 72.72 73.06 78.77 76.86 73.69 72.99 74.70 73.65 73.99 74.10 72.23 70.73 67.87 66.55 64.53 63.95 63.65 61.15
75.49 77.36 77.35 76.97 76.83 76.76 75.28 77.41 76.81 76.09 76.45 75.88 75.91 75.85 76.42 75.74 72.94 73.02 74.72 78.48 78.03 75.88 73.63 72.67 71.50 71.77 72.87 74.14 73.65 73.68 72.95 73.59 75.94 75.12 74.07 74.67 75.21 74.85 75.29 66.75 69.73 66.11 62.76
77.10 77.61 76.95 76.97 76.82 75.99 64.71 67.11 72.24 76.93 76.57 76.45 76.20 76.63 77.18 75.06 74.04 70.74 69.77 69.27 72.37 75.86 76.24 73.41 72.77 73.13 76.42 74.56 73.83 74.84 74.06 73.38 71.88 77.24 76.83 75.67 76.87 75.17 75.74 75.69 70.86 67.99 63.20
77.24 76.89 76.56 76.41 75.87 73.81 62.75 64.40 67.84 75.62 76.31 76.54 76.89 77.11 76.34 74.62 74.67 76.89 71.46 68.62 68.72 67.56 69.16 76.77 74.85 75.71 76.32 77.62 77.46 76.94 77.09 75.98 73.98 76.01 77.10 75.14 76.98 75.28 76.74 77.85 67.94 66.11 63.54
74.65 75.22 75.19 75.50 70.80 64.28 58.05 59.62 63.42 73.89 77.03 76.86 76.44 76.56 76.55 74.05 66.75 69.44 75.52 75.99 76.05 76.86 76.37 75.37 77.81 77.27 77.59 77.29 77.93 77.28 77.09 76.88 76.19 76.71 77.93 73.48 75.71 75.56 77.88 79.09 67.56 66.06 63.28
72.73 72.52 72.26 68.58 66.54 62.59 55.13 56.61 62.52 75.74 75.57 74.96 73.03 70.89 72.48 69.46 59.29 59.50 71.83 73.68 74.41 75.63 72.81 67.38 66.59 66.55 66.31 66.09 68.89 74.98 73.43 73.61 72.11 73.54 76.44 74.84 74.84 74.18 76.38 76.96 78.19 65.86 63.37
70.13 68.21 67.26 66.76 61.65 62.81 53.89 54.55 59.43 74.78 73.19 74.25 72.95 67.91 57.79 61.51 56.89 56.32 66.00 68.09 69.76 69.87 67.01 67.72 70.26 72.05 70.65 74.51 67.14 74.78 77.60 74.07 73.67 72.69 76.55 72.56 73.58 76.51 71.92 75.33 76.76 77.13 76.91